Location: McFarlands Corners
(41.4117°N, 81.3382°W)
Time: 12:19:38
(UTC+00:00)

Tiros 1 - Pass Details

Date: 18 February 2026
Orbit: 618 x 650 km, 48.4° (Epoch: 16 March)

Event Time Altitude Azimuth Distance (km) Brightness Sun altitude
Rises 14:51:50 0° 257° (WSW) 2,907 10.2 24.6°
Reaches altitude 10° 14:54:12 10° 262° (W) 1,997 9.4 24.9°
Maximum altitude 14:58:41 53° 340° (NNW) 768 7.5 25.5°
Drops below altitude 10° 15:03:10 10° 57° (ENE) 1,986 9.9 26.1°
Sets 15:05:31 0° 63° (ENE) 2,891 10.7 26.4°
